This is the latest recevied weather packets stored in our database for station/object KA1AL. If no packets are shown the sender has not sent any weather packets the latest 10 day(s).
| Time | Temp. | Humidity | Pressure | Rain* | Wind** | Luminosity | Snow |
|---|---|---|---|---|---|---|---|
| 1777962072 | 7.78° C | 88% | 1006.7 hPa | 0 mm | - | 0 W/m² | - |
| 1777961769 | 7.78° C | 88% | 1007 hPa | 0 mm | - | 0 W/m² | - |
| 1777961468 | 7.78° C | 88% | 1006.9 hPa | 0 mm | - | 0 W/m² | - |
| 1777961165 | 8.33° C | 86% | 1006.8 hPa | 0 mm | - | 0 W/m² | - |
| 1777960861 | 8.89° C | 85% | 1006.7 hPa | 0 mm | - | 0 W/m² | - |
| 1777960556 | 8.89° C | 84% | 1006.7 hPa | 0 mm | - | 0 W/m² | - |
| 1777960253 | 8.89° C | 83% | 1006.6 hPa | 0 mm | - | 0 W/m² | - |
| 1777959950 | 9.44° C | 83% | 1006.6 hPa | 0 mm | - | 0 W/m² | - |
| 1777959649 | 9.44° C | 82% | 1006.9 hPa | 0 mm | - | 0 W/m² | - |
| 1777959345 | 9.44° C | 82% | 1006.7 hPa | 0 mm | - | 0 W/m² | - |
| 1777959042 | 8.89° C | 82% | 1006.6 hPa | 0 mm | - | 0 W/m² | - |
| 1777958739 | 9.44° C | 82% | 1006.5 hPa | 0 mm | - | 0 W/m² | - |
| 1777958437 | 8.89° C | 82% | 1006.5 hPa | 0 mm | - | 0 W/m² | - |
| 1777958133 | 9.44° C | 82% | 1006.6 hPa | 0 mm | - | 0 W/m² | - |
| 1777957831 | 9.44° C | 81% | 1006.5 hPa | 0 mm | - | 0 W/m² | - |
| 1777957529 | 10° C | 80% | 1006.5 hPa | 0 mm | - | 0 W/m² | - |
| 1777957227 | 10° C | 79% | 1006.4 hPa | 0 mm | - | 0 W/m² | - |
| 1777956923 | 10° C | 79% | 1006.6 hPa | 0 mm | - | 0 W/m² | - |
| 1777956620 | 10° C | 80% | 1006.7 hPa | 0 mm | - | 0 W/m² | - |
| 1777956318 | 9.44° C | 82% | 1006.6 hPa | 0 mm | - | 0 W/m² | - |
| 1777956014 | 9.44° C | 82% | 1006.6 hPa | 0 mm | - | 0 W/m² | - |
| 1777955710 | 8.89° C | 83% | 1006.5 hPa | 0 mm | - | 0 W/m² | - |
| 1777955407 | 10° C | 81% | 1006.4 hPa | 0 mm | - | 0 W/m² | - |
| 1777955103 | 10° C | 82% | 1006.4 hPa | 0 mm | - | 0 W/m² | - |
| 1777954800 | 10° C | 81% | 1006.3 hPa | 0 mm | - | 0 W/m² | - |
* Rain latest hour (hover to see other rain measurements)
** Current wind speed in m/s (hover to see current wind gust speed)